Lincoln, NE

10:57 AM CST on January 21, 2017 (GMT -0600)
Lincoln Municipal Airport

Weather History for KLNK - January, 2014

Change the Weather History Date:

Friday, January 17, 2014

  Actual Average Record
Temperature  
Mean Temperature 24 °F 24 °F  
Max Temperature 36 °F 35 °F 64 °F (1986)
Min Temperature 12 °F 14 °F -16 °F (1930)
Degree Days  
Heating Degree Days 41 41  
Month to date heating degree days 731 694  
Since 1 July heating degree days 3349 3139  
Cooling Degree Days 0 0  
Month to date cooling degree days 0 0  
Year to date cooling degree days 0 0  
Moisture  
Dew Point 4 °F    
Average Humidity 40    
Maximum Humidity 58    
Minimum Humidity 21    
Precipitation  
Precipitation 0.00 in 0.02 in 0.45 in (1960)
Month to date precipitation 0.20 0.33  
Year to date precipitation 0.20 0.33  
Snow  
Snow 0.00 in 0.10 in - ()
Month to date snowfall 3.3 2.7  
Since 1 July snowfall 9.2 11.4  
Snow Depth 0.00 in    
Sea Level Pressure  
Sea Level Pressure 30.13 in    
Wind  
Wind Speed 9 mph (WNW)    
Max Wind Speed 20 mph    
Max Gust Speed 25 mph    
Visibility 10 miles    
Events      
T = Trace of Precipitation, MM = Missing Value Source: NWS Daily Summary

Daily Weather History Graph

Daily Weather History Graph

Search for Another Location

Airport or City:

Trip Planner

Search our weather history database for the weather conditions in past years. The results will help you decide how hot, cold, wet, or windy it might be!

Date:

Astronomy

Jan. 17, 2014 Rise Set
Actual Time 7:48 AM CST 5:26 PM CST
Civil Twilight 7:18 AM CST 5:56 PM CST
Nautical Twilight 6:44 AM CST 6:30 PM CST
Astronomical Twilight 6:11 AM CST 7:02 PM CST
Moon 7:15 PM CST (1/17) 8:16 AM CST (1/17)
Length of Visible Light 10h 38m
Length of Day
9h 37m
Full, 98% of the Moon is Illuminated
Jan 17
Full
Jan 23
Last Quarter
Jan 30
New
Feb 6
First Quarter
Feb 14
Full

Hourly Weather History & Observations

Time (CST) Temp. Windchill Dew Point Humidity Pressure Visibility Wind Dir Wind Speed Gust Speed Precip Events Conditions
12:54 AM 18.0 °F 3.6 °F -0.9 °F 44% 30.16 in 10.0 mi NNW 15.0 mph - N/A   Clear
1:54 AM 17.1 °F 3.0 °F -0.9 °F 45% 30.17 in 10.0 mi NW 13.8 mph 21.9 mph N/A   Clear
2:54 AM 16.0 °F 3.6 °F -0.9 °F 47% 30.18 in 10.0 mi NW 10.4 mph - N/A   Clear
3:54 AM 15.1 °F 4.2 °F -0.9 °F 49% 30.19 in 10.0 mi NW 8.1 mph - N/A   Clear
4:54 AM 14.0 °F 2.9 °F -2.0 °F 49% 30.21 in 10.0 mi WNW 8.1 mph - N/A   Clear
5:54 AM 12.9 °F 1.6 °F -2.0 °F 51% 30.22 in 10.0 mi WNW 8.1 mph - N/A   Clear
6:54 AM 14.0 °F 2.9 °F -2.0 °F 49% 30.22 in 10.0 mi WNW 8.1 mph - N/A   Clear
7:54 AM 12.9 °F 2.6 °F -0.9 °F 54% 30.23 in 10.0 mi WNW 6.9 mph - N/A   Clear
8:54 AM 16.0 °F 8.8 °F 1.0 °F 52% 30.25 in 10.0 mi WNW 4.6 mph - N/A   Clear
9:54 AM 19.9 °F 7.3 °F -0.9 °F 40% 30.25 in 10.0 mi NNW 12.7 mph - N/A   Clear
10:54 AM 25.0 °F 12.6 °F -5.1 °F 27% 30.24 in 10.0 mi NW 15.0 mph - N/A   Clear
11:54 AM 28.9 °F 17.3 °F -7.1 °F 21% 30.21 in 10.0 mi NNW 16.1 mph - N/A   Clear
12:54 PM 32.0 °F 22.1 °F 1.0 °F 27% 30.17 in 10.0 mi NNW 13.8 mph 20.7 mph N/A   Clear
1:54 PM 34.0 °F 26.6 °F 5.0 °F 30% 30.16 in 10.0 mi NW 9.2 mph - N/A   Clear
2:54 PM 36.0 °F 29.6 °F 6.1 °F 29% 30.14 in 10.0 mi WNW 8.1 mph - N/A   Clear
3:54 PM 36.0 °F 31.1 °F 7.0 °F 30% 30.13 in 10.0 mi Variable 5.8 mph - N/A   Clear
4:54 PM 35.1 °F 30.1 °F 9.0 °F 34% 30.12 in 10.0 mi WSW 5.8 mph - N/A   Clear
5:54 PM 28.9 °F 23.9 °F 9.0 °F 43% 30.10 in 10.0 mi South 4.6 mph - N/A   Clear
6:54 PM 27.0 °F 20.5 °F 10.9 °F 51% 30.06 in 10.0 mi SSE 5.8 mph - N/A   Clear
7:54 PM 28.9 °F 25.2 °F 12.0 °F 49% 30.06 in 10.0 mi SSE 3.5 mph - N/A   Overcast
8:54 PM 30.0 °F 23.2 °F 12.9 °F 49% 30.02 in 10.0 mi SSE 6.9 mph - N/A   Overcast
9:54 PM 28.0 °F 21.7 °F 15.1 °F 58% 29.99 in 10.0 mi South 5.8 mph - N/A   Mostly Cloudy
10:54 PM 32.0 °F 23.6 °F 16.0 °F 52% 29.95 in 10.0 mi South 10.4 mph - N/A   Overcast
11:54 PM 32.0 °F 23.0 °F 16.0 °F 52% 29.87 in 10.0 mi South 11.5 mph - N/A   Clear